ARG1056 SAEZ-SPJC

Flight info

Callsign ARG1056
Flight time 4h 32m
Altitude 40000
Route BIVAM1E BIVAM UW8 ERE UT680 TUC UL550 SCO UT224 ASOXI
Aircraft B737/M-SDFGHILRVW/S

Departure

Time 2026-04-27 16:04
Airport Ezeiza International Airport - Ministro Pistarini (SAEZ)

Arrival

Time 2026-04-27 20:36
Airport Jorge Chávez International Airport (SPJC)
Time Latitude Longitude Altitude Speed Heading
2026-04-27 15:44 -34.81605 -58.54542 74 ft 0 kts 11°
2026-04-27 15:52 -34.81617 -58.54544 62 ft 4 kts 11°
2026-04-27 15:52 -34.81643 -58.54551 64 ft 4 kts 13°
2026-04-27 15:53 -34.81670 -58.54559 69 ft 4 kts 13°
2026-04-27 15:53 -34.81696 -58.54567 65 ft 4 kts 15°
2026-04-27 15:53 -34.81723 -58.54577 71 ft 4 kts 19°
2026-04-27 15:53 -34.81742 -58.54586 69 ft 4 kts 25°
2026-04-27 15:54 -34.81762 -58.54601 70 ft 4 kts 50°
2026-04-27 15:54 -34.81769 -58.54613 73 ft 1 kts 74°
2026-04-27 15:54 -34.81769 -58.54614 73 ft 0 kts 75°
2026-04-27 15:56 -34.81766 -58.54603 72 ft 3 kts 74°
2026-04-27 15:56 -34.81756 -58.54559 73 ft 7 kts 75°
2026-04-27 15:56 -34.81757 -58.54492 74 ft 9 kts 93°
2026-04-27 15:57 -34.81761 -58.54406 74 ft 11 kts 95°
2026-04-27 15:57 -34.81771 -58.54306 70 ft 12 kts 97°
2026-04-27 15:57 -34.81778 -58.54226 74 ft 14 kts 96°
2026-04-27 15:57 -34.81783 -58.54146 74 ft 15 kts 91°
2026-04-27 15:58 -34.81787 -58.54062 71 ft 13 kts 89°
2026-04-27 15:58 -34.81720 -58.53892 70 ft 11 kts 58°
2026-04-27 15:58 -34.81701 -58.53801 74 ft 11 kts 94°
2026-04-27 15:58 -34.81743 -58.53723 69 ft 12 kts 144°
2026-04-27 15:59 -34.81819 -58.53678 72 ft 13 kts 155°
2026-04-27 15:59 -34.81901 -58.53610 67 ft 15 kts 133°
2026-04-27 15:59 -34.81934 -58.53483 74 ft 16 kts 105°
2026-04-27 15:59 -34.81961 -58.53343 74 ft 18 kts 104°
2026-04-27 16:00 -34.81990 -58.53193 75 ft 18 kts 103°
2026-04-27 16:00 -34.82009 -58.53107 71 ft 16 kts 104°
2026-04-27 16:00 -34.82042 -58.52938 83 ft 15 kts 105°
2026-04-27 16:00 -34.82070 -58.52802 68 ft 16 kts 103°
2026-04-27 16:01 -34.82097 -58.52661 68 ft 18 kts 103°
2026-04-27 16:01 -34.82129 -58.52500 68 ft 20 kts 104°
2026-04-27 16:01 -34.82159 -58.52347 72 ft 18 kts 103°
2026-04-27 16:01 -34.82189 -58.52202 73 ft 18 kts 103°
2026-04-27 16:02 -34.82218 -58.52048 74 ft 19 kts 103°
2026-04-27 16:02 -34.82246 -58.51907 74 ft 17 kts 103°
2026-04-27 16:02 -34.82288 -58.51795 72 ft 14 kts 147°
2026-04-27 16:02 -34.82344 -58.51791 75 ft 7 kts 194°
2026-04-27 16:03 -34.82392 -58.51806 75 ft 7 kts 193°
2026-04-27 16:03 -34.82441 -58.51820 70 ft 7 kts 192°
2026-04-27 16:03 -34.82489 -58.51838 84 ft 8 kts 212°
2026-04-27 16:03 -34.82492 -58.52110 79 ft 82 kts 284°
2026-04-27 16:04 -34.82290 -58.53172 219 ft 161 kts 281°
2026-04-27 16:04 -34.82030 -58.54544 1392 ft 165 kts 277°
2026-04-27 16:04 -34.81748 -58.56075 2847 ft 177 kts 277°
2026-04-27 16:04 -34.81333 -58.57633 3928 ft 196 kts 283°
2026-04-27 16:05 -34.80885 -58.59355 4377 ft 234 kts 282°
2026-04-27 16:05 -34.80386 -58.61387 5123 ft 257 kts 282°
2026-04-27 16:05 -34.79532 -58.63398 6535 ft 269 kts 311°
2026-04-27 16:05 -34.78509 -58.64269 7419 ft 277 kts 333°
2026-04-27 16:06 -34.76666 -58.64973 8844 ft 280 kts 339°
2026-04-27 16:06 -34.74669 -58.65694 10146 ft 286 kts 338°
2026-04-27 16:06 -34.72613 -58.66444 10955 ft 307 kts 338°
2026-04-27 16:06 -34.70249 -58.67322 11435 ft 338 kts 338°
2026-04-27 16:07 -34.68228 -58.68073 12229 ft 348 kts 338°
2026-04-27 16:07 -34.66655 -58.68656 12943 ft 352 kts 338°
2026-04-27 16:07 -34.64114 -58.69600 14064 ft 359 kts 337°
2026-04-27 16:07 -34.61106 -58.70723 15262 ft 365 kts 336°
2026-04-27 16:08 -34.59091 -58.71476 16090 ft 368 kts 336°
2026-04-27 16:08 -34.56559 -58.72425 17133 ft 372 kts 335°
2026-04-27 16:08 -34.54055 -58.73365 18086 ft 378 kts 335°
2026-04-27 16:08 -34.51499 -58.74325 18941 ft 383 kts 335°
2026-04-27 16:09 -34.48924 -58.75291 19798 ft 387 kts 335°
2026-04-27 16:09 -34.43283 -58.77404 21666 ft 395 kts 335°
2026-04-27 16:09 -34.41638 -58.78021 22159 ft 398 kts 334°
2026-04-27 16:10 -34.35819 -58.80199 23841 ft 407 kts 334°
2026-04-27 16:10 -34.30114 -58.82332 25115 ft 418 kts 334°
2026-04-27 16:11 -34.28512 -58.82930 25452 ft 420 kts 334°
2026-04-27 16:11 -34.21450 -58.85562 26931 ft 431 kts 334°
2026-04-27 16:12 -34.15660 -58.87717 28029 ft 440 kts 334°
2026-04-27 16:12 -34.12712 -58.88812 28593 ft 444 kts 334°
2026-04-27 16:12 -34.06671 -58.91055 29619 ft 452 kts 335°
2026-04-27 16:13 -34.03646 -58.92177 30098 ft 457 kts 335°
2026-04-27 16:13 -33.97573 -58.94511 30997 ft 456 kts 330°
2026-04-27 16:13 -33.95716 -58.95502 31282 ft 450 kts 324°
2026-04-27 16:14 -33.89905 -58.99697 32357 ft 443 kts 320°
2026-04-27 16:14 -33.84564 -59.03689 33649 ft 435 kts 320°
2026-04-27 16:15 -33.79425 -59.07483 34640 ft 431 kts 320°
2026-04-27 16:15 -33.74284 -59.11238 35503 ft 428 kts 320°
2026-04-27 16:16 -33.69200 -59.14935 36390 ft 423 kts 320°
2026-04-27 16:16 -33.64178 -59.18579 37221 ft 420 kts 320°
2026-04-27 16:17 -33.59079 -59.22276 38061 ft 416 kts 320°
2026-04-27 16:17 -33.54915 -59.25290 38763 ft 412 kts 320°
2026-04-27 16:18 -33.50034 -59.28822 39311 ft 411 kts 320°
2026-04-27 16:18 -33.45065 -59.32413 39783 ft 412 kts 320°
2026-04-27 16:19 -33.42513 -59.34255 40062 ft 411 kts 320°
2026-04-27 16:19 -33.39999 -59.36069 40141 ft 414 kts 320°
2026-04-27 16:20 -33.30038 -59.43234 40161 ft 407 kts 320°
2026-04-27 16:21 -33.22762 -59.48458 40163 ft 404 kts 320°
2026-04-27 16:22 -33.13475 -59.55115 40171 ft 402 kts 320°
2026-04-27 16:22 -33.06222 -59.60302 40175 ft 402 kts 320°
2026-04-27 16:23 -32.99015 -59.65446 40179 ft 403 kts 320°
2026-04-27 16:24 -32.94195 -59.68880 40183 ft 404 kts 320°
2026-04-27 16:25 -32.84479 -59.75788 40184 ft 406 kts 320°
2026-04-27 16:26 -32.74767 -59.82675 40191 ft 406 kts 320°
2026-04-27 16:27 -32.65062 -59.89541 40190 ft 405 kts 320°
2026-04-27 16:28 -32.52972 -59.98070 40197 ft 402 kts 319°
2026-04-27 16:29 -32.40973 -60.06518 40200 ft 400 kts 320°
2026-04-27 16:30 -32.31492 -60.13174 40202 ft 398 kts 320°
2026-04-27 16:31 -32.19381 -60.21655 40205 ft 396 kts 319°
2026-04-27 16:32 -32.12238 -60.26644 40207 ft 395 kts 319°
2026-04-27 16:33 -32.05100 -60.31621 40204 ft 394 kts 319°
2026-04-27 16:33 -32.01128 -60.34386 40206 ft 394 kts 319°
2026-04-27 16:34 -31.96387 -60.37683 40207 ft 393 kts 319°
2026-04-27 16:34 -31.91637 -60.40984 40211 ft 393 kts 319°
2026-04-27 16:35 -31.87021 -60.44188 40207 ft 393 kts 319°
2026-04-27 16:36 -31.79955 -60.49093 40211 ft 392 kts 318°
2026-04-27 16:36 -31.75377 -60.52538 40210 ft 389 kts 317°
2026-04-27 16:37 -31.70816 -60.56062 40208 ft 389 kts 317°
2026-04-27 16:37 -31.66253 -60.59562 40213 ft 389 kts 317°
2026-04-27 16:38 -31.61733 -60.63005 40215 ft 389 kts 317°
2026-04-27 16:38 -31.57157 -60.66479 40211 ft 389 kts 317°
2026-04-27 16:39 -31.52610 -60.69925 40213 ft 388 kts 317°
2026-04-27 16:39 -31.48074 -60.73358 40211 ft 388 kts 317°
2026-04-27 16:40 -31.43565 -60.76768 40219 ft 388 kts 317°
2026-04-27 16:40 -31.39032 -60.80193 40225 ft 387 kts 317°
2026-04-27 16:41 -31.34500 -60.83612 40222 ft 387 kts 317°
2026-04-27 16:41 -31.29942 -60.87046 40227 ft 386 kts 316°
2026-04-27 16:42 -31.25484 -60.90402 40223 ft 386 kts 316°
2026-04-27 16:42 -31.20909 -60.93842 40227 ft 385 kts 316°
2026-04-27 16:43 -31.16430 -60.97206 40228 ft 385 kts 316°
2026-04-27 16:43 -31.11866 -61.00630 40228 ft 384 kts 316°
2026-04-27 16:44 -31.07336 -61.04026 40225 ft 384 kts 316°
2026-04-27 16:44 -31.02842 -61.07389 40227 ft 384 kts 316°
2026-04-27 16:45 -30.98348 -61.10743 40229 ft 383 kts 316°
2026-04-27 16:45 -30.93854 -61.14093 40232 ft 383 kts 316°
2026-04-27 16:46 -30.89365 -61.17437 40239 ft 382 kts 316°
2026-04-27 16:46 -30.84881 -61.20774 40232 ft 382 kts 316°
2026-04-27 16:47 -30.80396 -61.24108 40231 ft 382 kts 316°
2026-04-27 16:47 -30.75858 -61.27478 40232 ft 381 kts 316°
2026-04-27 16:48 -30.71356 -61.30817 40228 ft 381 kts 316°
2026-04-27 16:48 -30.66898 -61.34120 40227 ft 380 kts 316°
2026-04-27 16:49 -30.60179 -61.39091 40238 ft 379 kts 316°
2026-04-27 16:49 -30.56453 -61.41845 40231 ft 378 kts 316°
2026-04-27 16:50 -30.52004 -61.45129 40238 ft 378 kts 316°
2026-04-27 16:50 -30.47568 -61.48400 40232 ft 377 kts 316°
2026-04-27 16:51 -30.43141 -61.51661 40232 ft 377 kts 316°
2026-04-27 16:51 -30.38694 -61.54934 40234 ft 376 kts 316°
2026-04-27 16:52 -30.34229 -61.58223 40254 ft 387 kts 319°
2026-04-27 16:52 -30.29606 -61.61626 40244 ft 397 kts 319°
2026-04-27 16:53 -30.24943 -61.65037 40233 ft 396 kts 319°
2026-04-27 16:53 -30.20295 -61.68435 40232 ft 394 kts 319°
2026-04-27 16:54 -30.15665 -61.71822 40233 ft 393 kts 319°
2026-04-27 16:54 -30.11048 -61.75196 40237 ft 392 kts 319°
2026-04-27 16:55 -30.06413 -61.78580 40227 ft 390 kts 319°
2026-04-27 16:55 -30.01823 -61.81928 40235 ft 389 kts 318°
2026-04-27 16:56 -29.97242 -61.85267 40236 ft 388 kts 318°
2026-04-27 16:56 -29.92667 -61.88597 40233 ft 388 kts 318°
2026-04-27 16:57 -29.88089 -61.91949 40238 ft 384 kts 316°
2026-04-27 16:57 -29.86016 -61.93825 40143 ft 370 kts 306°
2026-04-27 16:57 -29.84175 -61.95830 40195 ft 360 kts 306°
2026-04-27 16:58 -29.80583 -61.99797 40229 ft 358 kts 306°
2026-04-27 16:58 -29.76954 -62.03803 40237 ft 360 kts 306°
2026-04-27 16:59 -29.73326 -62.07785 40240 ft 361 kts 306°
2026-04-27 16:59 -29.69652 -62.11801 40241 ft 362 kts 306°
2026-04-27 17:00 -29.64158 -62.17793 40236 ft 363 kts 306°
2026-04-27 17:01 -29.60473 -62.21807 40227 ft 362 kts 306°
2026-04-27 17:01 -29.56805 -62.25796 40227 ft 361 kts 306°
2026-04-27 17:02 -29.53174 -62.29739 40240 ft 358 kts 306°
2026-04-27 17:02 -29.49598 -62.33620 40239 ft 356 kts 306°
2026-04-27 17:03 -29.45934 -62.37595 40240 ft 354 kts 306°
2026-04-27 17:03 -29.42279 -62.41558 40234 ft 355 kts 306°
2026-04-27 17:04 -29.38661 -62.45476 40241 ft 356 kts 306°
2026-04-27 17:04 -29.35607 -62.48781 40240 ft 358 kts 306°
2026-04-27 17:05 -29.31937 -62.52747 40237 ft 361 kts 307°
2026-04-27 17:05 -29.28267 -62.56709 40240 ft 363 kts 307°
2026-04-27 17:06 -29.24523 -62.60745 40239 ft 365 kts 307°
2026-04-27 17:06 -29.20813 -62.64739 40243 ft 366 kts 307°
2026-04-27 17:07 -29.16994 -62.68847 40245 ft 367 kts 307°
2026-04-27 17:07 -29.13268 -62.72850 40239 ft 367 kts 307°
2026-04-27 17:08 -29.09520 -62.76874 40242 ft 367 kts 307°
2026-04-27 17:08 -29.05800 -62.80864 40240 ft 366 kts 307°
2026-04-27 17:09 -29.02039 -62.84895 40242 ft 366 kts 307°
2026-04-27 17:09 -28.98326 -62.88868 40241 ft 365 kts 307°
2026-04-27 17:10 -28.94609 -62.92838 40247 ft 365 kts 307°
2026-04-27 17:10 -28.90818 -62.96881 40245 ft 365 kts 307°
2026-04-27 17:11 -28.87052 -63.00895 40244 ft 365 kts 307°
2026-04-27 17:11 -28.81468 -63.06841 40243 ft 366 kts 307°
2026-04-27 17:12 -28.76517 -63.12105 40243 ft 366 kts 307°
2026-04-27 17:13 -28.72447 -63.16428 40244 ft 367 kts 307°
2026-04-27 17:13 -28.68712 -63.20390 40242 ft 367 kts 307°
2026-04-27 17:14 -28.64975 -63.24351 40248 ft 367 kts 308°
2026-04-27 17:14 -28.61200 -63.28347 40246 ft 368 kts 308°
2026-04-27 17:15 -28.57450 -63.32312 40247 ft 368 kts 308°
2026-04-27 17:15 -28.53699 -63.36275 40241 ft 368 kts 308°
2026-04-27 17:16 -28.49939 -63.40244 40248 ft 368 kts 308°
2026-04-27 17:16 -28.46175 -63.44213 40242 ft 369 kts 308°
2026-04-27 17:17 -28.42385 -63.48204 40243 ft 369 kts 308°
2026-04-27 17:17 -28.38599 -63.52188 40239 ft 369 kts 308°
2026-04-27 17:18 -28.32944 -63.58131 40243 ft 369 kts 308°
2026-04-27 17:18 -28.29172 -63.62090 40243 ft 369 kts 308°
2026-04-27 17:19 -28.25379 -63.66067 40240 ft 369 kts 308°
2026-04-27 17:19 -28.21631 -63.69993 40239 ft 369 kts 308°
2026-04-27 17:20 -28.17802 -63.74001 40240 ft 369 kts 308°
2026-04-27 17:20 -28.14031 -63.77943 40239 ft 369 kts 308°
2026-04-27 17:21 -28.10869 -63.81247 40238 ft 369 kts 308°
2026-04-27 17:21 -28.07095 -63.85185 40235 ft 369 kts 308°
2026-04-27 17:22 -28.03314 -63.89134 40238 ft 369 kts 308°
2026-04-27 17:22 -27.99538 -63.93083 40238 ft 369 kts 308°
2026-04-27 17:23 -27.95756 -63.97034 40241 ft 369 kts 308°
2026-04-27 17:23 -27.92002 -64.00954 40235 ft 370 kts 308°
2026-04-27 17:24 -27.88220 -64.04897 40239 ft 370 kts 308°
2026-04-27 17:24 -27.84404 -64.08872 40236 ft 370 kts 308°
2026-04-27 17:25 -27.80616 -64.12815 40235 ft 370 kts 308°
2026-04-27 17:25 -27.76823 -64.16758 40232 ft 370 kts 308°
2026-04-27 17:26 -27.73028 -64.20699 40243 ft 370 kts 308°
2026-04-27 17:26 -27.69229 -64.24641 40240 ft 371 kts 308°
2026-04-27 17:27 -27.65434 -64.28574 40245 ft 371 kts 308°
2026-04-27 17:27 -27.61664 -64.32479 40233 ft 371 kts 308°
2026-04-27 17:28 -27.57825 -64.36450 40233 ft 371 kts 309°
2026-04-27 17:29 -27.52140 -64.42324 40229 ft 371 kts 309°
2026-04-27 17:29 -27.48306 -64.46282 40232 ft 371 kts 309°
2026-04-27 17:30 -27.44520 -64.50186 40230 ft 371 kts 309°
2026-04-27 17:30 -27.38770 -64.56109 40226 ft 372 kts 309°
2026-04-27 17:31 -27.34946 -64.60041 40221 ft 372 kts 309°
2026-04-27 17:31 -27.31109 -64.63948 40223 ft 372 kts 309°
2026-04-27 17:32 -27.25330 -64.69787 40224 ft 372 kts 309°
2026-04-27 17:33 -27.21481 -64.73678 40221 ft 372 kts 309°
2026-04-27 17:33 -27.17618 -64.77581 40222 ft 372 kts 309°
2026-04-27 17:34 -27.13696 -64.81540 40228 ft 372 kts 309°
2026-04-27 17:34 -27.09936 -64.85333 40221 ft 373 kts 309°
2026-04-27 17:35 -27.06025 -64.89274 40219 ft 373 kts 309°
2026-04-27 17:35 -27.02069 -64.93256 40226 ft 373 kts 309°
2026-04-27 17:36 -26.98175 -64.97172 40230 ft 374 kts 309°
2026-04-27 17:36 -26.94304 -65.01062 40237 ft 374 kts 310°
2026-04-27 17:37 -26.90432 -65.04949 40238 ft 374 kts 310°
2026-04-27 17:37 -26.86521 -65.08872 40235 ft 373 kts 310°
2026-04-27 17:38 -26.83258 -65.12102 40235 ft 374 kts 311°
2026-04-27 17:38 -26.79208 -65.15814 40241 ft 375 kts 312°
2026-04-27 17:39 -26.75117 -65.19504 40231 ft 375 kts 312°
2026-04-27 17:39 -26.71066 -65.23181 40220 ft 375 kts 312°
2026-04-27 17:40 -26.67021 -65.26866 40211 ft 375 kts 312°
2026-04-27 17:40 -26.62927 -65.30599 40201 ft 375 kts 312°
2026-04-27 17:41 -26.58799 -65.34361 40190 ft 375 kts 312°
2026-04-27 17:41 -26.54664 -65.38126 40178 ft 376 kts 312°
2026-04-27 17:42 -26.50572 -65.41847 40172 ft 377 kts 312°
2026-04-27 17:42 -26.46465 -65.45581 40159 ft 379 kts 312°
2026-04-27 17:43 -26.42375 -65.49293 40147 ft 379 kts 313°
2026-04-27 17:43 -26.38261 -65.53063 40138 ft 379 kts 312°
2026-04-27 17:44 -26.34137 -65.56781 40127 ft 377 kts 313°
2026-04-27 17:44 -26.30011 -65.60497 40132 ft 376 kts 313°
2026-04-27 17:45 -26.25932 -65.64179 40125 ft 375 kts 313°
2026-04-27 17:45 -26.22544 -65.67244 40104 ft 376 kts 313°
2026-04-27 17:46 -26.18338 -65.71046 40135 ft 380 kts 313°
2026-04-27 17:46 -26.14156 -65.74818 40089 ft 386 kts 313°
2026-04-27 17:47 -26.10030 -65.78525 40110 ft 376 kts 313°
2026-04-27 17:47 -26.05904 -65.82233 40063 ft 375 kts 313°
2026-04-27 17:48 -26.01853 -65.85875 40058 ft 373 kts 313°
2026-04-27 17:48 -25.97822 -65.89495 40047 ft 371 kts 313°
2026-04-27 17:49 -25.93812 -65.93093 40048 ft 370 kts 313°
2026-04-27 17:49 -25.89810 -65.96682 40035 ft 369 kts 313°
2026-04-27 17:50 -25.85783 -66.00289 40032 ft 370 kts 313°
2026-04-27 17:50 -25.79744 -66.05693 40015 ft 374 kts 313°
2026-04-27 17:51 -25.75674 -66.09330 40006 ft 376 kts 313°
2026-04-27 17:51 -25.71638 -66.12933 39994 ft 380 kts 314°
2026-04-27 17:52 -25.67399 -66.16716 39991 ft 382 kts 314°
2026-04-27 17:52 -25.63919 -66.19819 39978 ft 384 kts 314°
2026-04-27 17:53 -25.59083 -66.24126 39964 ft 384 kts 314°
2026-04-27 17:53 -25.54875 -66.27869 39962 ft 384 kts 314°
2026-04-27 17:54 -25.50675 -66.31603 39960 ft 385 kts 314°
2026-04-27 17:54 -25.46383 -66.35416 39955 ft 385 kts 314°
2026-04-27 17:55 -25.42187 -66.39140 39980 ft 387 kts 314°
2026-04-27 17:55 -25.38828 -66.42120 39966 ft 388 kts 314°
2026-04-27 17:56 -25.34413 -66.46031 39985 ft 389 kts 314°
2026-04-27 17:56 -25.30140 -66.49817 39980 ft 390 kts 314°
2026-04-27 17:57 -25.25858 -66.53598 40012 ft 386 kts 314°
2026-04-27 17:57 -25.21597 -66.57359 40001 ft 383 kts 314°
2026-04-27 17:58 -25.17333 -66.61121 40010 ft 377 kts 314°
2026-04-27 17:58 -25.13199 -66.64768 40074 ft 378 kts 314°
2026-04-27 17:59 -25.09013 -66.68470 40050 ft 389 kts 314°
2026-04-27 17:59 -25.04754 -66.72219 40044 ft 389 kts 314°
2026-04-27 18:00 -25.00513 -66.75944 40055 ft 389 kts 314°
2026-04-27 18:00 -24.96311 -66.79633 40041 ft 387 kts 314°
2026-04-27 18:01 -24.92084 -66.83343 40036 ft 384 kts 314°
2026-04-27 18:01 -24.87872 -66.87038 40054 ft 384 kts 314°
2026-04-27 18:02 -24.83625 -66.90762 40038 ft 385 kts 315°
2026-04-27 18:02 -24.79390 -66.94471 40026 ft 386 kts 315°
2026-04-27 18:03 -24.75869 -66.97551 40025 ft 386 kts 315°
2026-04-27 18:03 -24.71639 -67.01248 40029 ft 386 kts 315°
2026-04-27 18:04 -24.67454 -67.04903 40032 ft 386 kts 315°
2026-04-27 18:04 -24.63175 -67.08637 40034 ft 386 kts 315°
2026-04-27 18:05 -24.58961 -67.12312 40024 ft 387 kts 315°
2026-04-27 18:05 -24.54711 -67.16014 40027 ft 388 kts 315°
2026-04-27 18:06 -24.50354 -67.19805 40018 ft 388 kts 315°
2026-04-27 18:06 -24.46031 -67.23563 39997 ft 387 kts 315°
2026-04-27 18:07 -24.41798 -67.27241 40025 ft 391 kts 315°
2026-04-27 18:07 -24.37516 -67.30960 40036 ft 392 kts 315°
2026-04-27 18:08 -24.33204 -67.34697 40040 ft 391 kts 315°
2026-04-27 18:08 -24.28900 -67.38425 40054 ft 391 kts 315°
2026-04-27 18:09 -24.24632 -67.42121 40060 ft 391 kts 315°
2026-04-27 18:09 -24.20324 -67.45847 40089 ft 391 kts 315°
2026-04-27 18:10 -24.16044 -67.49548 40095 ft 392 kts 315°
2026-04-27 18:10 -24.11757 -67.53248 40103 ft 392 kts 315°
2026-04-27 18:11 -24.07444 -67.56911 40136 ft 393 kts 316°
2026-04-27 18:11 -24.03099 -67.60564 40144 ft 394 kts 316°
2026-04-27 18:12 -23.98756 -67.64215 40167 ft 393 kts 316°
2026-04-27 18:12 -23.94412 -67.67870 40159 ft 395 kts 316°
2026-04-27 18:13 -23.90057 -67.71533 40178 ft 395 kts 316°
2026-04-27 18:13 -23.86441 -67.74573 40182 ft 394 kts 316°
2026-04-27 18:14 -23.82087 -67.78230 40186 ft 395 kts 316°
2026-04-27 18:14 -23.77725 -67.81893 40184 ft 396 kts 316°
2026-04-27 18:15 -23.73342 -67.85568 40165 ft 396 kts 316°
2026-04-27 18:15 -23.68970 -67.89230 40136 ft 396 kts 316°
2026-04-27 18:16 -23.64576 -67.92907 40122 ft 395 kts 316°
2026-04-27 18:16 -23.60089 -67.96660 40105 ft 395 kts 316°
2026-04-27 18:17 -23.55728 -68.00305 40090 ft 394 kts 316°
2026-04-27 18:17 -23.51346 -68.03963 40064 ft 393 kts 316°
2026-04-27 18:18 -23.47089 -68.07515 40043 ft 393 kts 316°
2026-04-27 18:18 -23.42606 -68.11251 40033 ft 391 kts 316°
2026-04-27 18:19 -23.38222 -68.14902 40019 ft 391 kts 316°
2026-04-27 18:19 -23.33905 -68.18495 40006 ft 390 kts 316°
2026-04-27 18:20 -23.29569 -68.22100 39996 ft 390 kts 316°
2026-04-27 18:20 -23.25253 -68.25685 40001 ft 390 kts 316°
2026-04-27 18:21 -23.20939 -68.29266 39992 ft 390 kts 316°
2026-04-27 18:21 -23.16593 -68.32871 39992 ft 391 kts 316°
2026-04-27 18:22 -23.12260 -68.36462 39998 ft 392 kts 316°
2026-04-27 18:22 -23.07918 -68.40058 40014 ft 393 kts 316°
2026-04-27 18:23 -23.03550 -68.43672 40012 ft 394 kts 316°
2026-04-27 18:23 -22.99187 -68.47279 40021 ft 395 kts 316°
2026-04-27 18:24 -22.94766 -68.50930 40035 ft 395 kts 316°
2026-04-27 18:24 -22.90380 -68.54550 40034 ft 397 kts 316°
2026-04-27 18:25 -22.85984 -68.58177 40048 ft 397 kts 316°
2026-04-27 18:25 -22.81579 -68.61809 40046 ft 398 kts 316°
2026-04-27 18:26 -22.77144 -68.65462 40047 ft 398 kts 316°
2026-04-27 18:26 -22.72735 -68.69092 40047 ft 398 kts 316°
2026-04-27 18:27 -22.68323 -68.72721 40041 ft 398 kts 316°
2026-04-27 18:27 -22.64660 -68.75731 40039 ft 397 kts 317°
2026-04-27 18:28 -22.60227 -68.79372 40042 ft 397 kts 317°
2026-04-27 18:28 -22.55790 -68.83015 40038 ft 397 kts 317°
2026-04-27 18:29 -22.51381 -68.86630 40032 ft 398 kts 317°
2026-04-27 18:29 -22.47063 -68.90304 40033 ft 396 kts 315°
2026-04-27 18:30 -22.42833 -68.94137 40030 ft 396 kts 314°
2026-04-27 18:30 -22.38570 -68.98006 40023 ft 396 kts 314°
2026-04-27 18:31 -22.34337 -69.01818 40032 ft 396 kts 315°
2026-04-27 18:31 -22.30092 -69.05625 40026 ft 397 kts 315°
2026-04-27 18:32 -22.25799 -69.09467 40026 ft 398 kts 315°
2026-04-27 18:32 -22.21530 -69.13284 40024 ft 398 kts 315°
2026-04-27 18:33 -22.17018 -69.17312 40017 ft 399 kts 315°
2026-04-27 18:33 -22.12533 -69.21315 40014 ft 399 kts 315°
2026-04-27 18:34 -22.08916 -69.24541 40004 ft 400 kts 315°
2026-04-27 18:34 -22.04601 -69.28386 40002 ft 400 kts 315°
2026-04-27 18:35 -22.00308 -69.32208 39991 ft 400 kts 315°
2026-04-27 18:35 -21.95975 -69.36063 39983 ft 400 kts 315°
2026-04-27 18:36 -21.91677 -69.39883 39975 ft 400 kts 315°
2026-04-27 18:36 -21.87375 -69.43704 39970 ft 401 kts 315°
2026-04-27 18:37 -21.82966 -69.47617 39965 ft 401 kts 315°
2026-04-27 18:37 -21.78555 -69.51529 39967 ft 401 kts 315°
2026-04-27 18:38 -21.74191 -69.55395 39964 ft 400 kts 315°
2026-04-27 18:38 -21.69873 -69.59218 39961 ft 400 kts 315°
2026-04-27 18:39 -21.65551 -69.63041 39973 ft 400 kts 315°
2026-04-27 18:39 -21.61238 -69.66854 39982 ft 400 kts 315°
2026-04-27 18:40 -21.56851 -69.70728 39988 ft 400 kts 315°
2026-04-27 18:40 -21.52523 -69.74547 40001 ft 400 kts 315°
2026-04-27 18:41 -21.48210 -69.78351 40004 ft 401 kts 316°
2026-04-27 18:41 -21.43902 -69.82147 40013 ft 401 kts 316°
2026-04-27 18:42 -21.41016 -69.84688 40016 ft 401 kts 316°
2026-04-27 18:42 -21.35963 -69.89134 40017 ft 402 kts 316°
2026-04-27 18:43 -21.31633 -69.92940 40033 ft 402 kts 316°
2026-04-27 18:43 -21.27305 -69.96742 40028 ft 402 kts 316°
2026-04-27 18:44 -21.22873 -70.00632 40034 ft 402 kts 316°
2026-04-27 18:44 -21.18428 -70.04531 40044 ft 403 kts 316°
2026-04-27 18:45 -21.14085 -70.08338 40035 ft 403 kts 316°
2026-04-27 18:45 -21.09731 -70.12150 40047 ft 404 kts 316°
2026-04-27 18:46 -21.05430 -70.15914 40042 ft 404 kts 316°
2026-04-27 18:46 -21.01016 -70.19774 40043 ft 404 kts 316°
2026-04-27 18:47 -20.96660 -70.23580 40039 ft 404 kts 316°
2026-04-27 18:47 -20.92308 -70.27380 40046 ft 404 kts 316°
2026-04-27 18:48 -20.87838 -70.31282 40044 ft 404 kts 316°
2026-04-27 18:48 -20.83462 -70.35101 40040 ft 404 kts 316°
2026-04-27 18:49 -20.79107 -70.38898 40040 ft 404 kts 316°
2026-04-27 18:49 -20.74717 -70.42722 40041 ft 404 kts 317°
2026-04-27 18:50 -20.70343 -70.46530 40038 ft 404 kts 317°
2026-04-27 18:50 -20.65961 -70.50342 40042 ft 404 kts 317°
2026-04-27 18:51 -20.62267 -70.53553 40042 ft 404 kts 317°
2026-04-27 18:51 -20.57822 -70.57414 40038 ft 404 kts 317°
2026-04-27 18:52 -20.53429 -70.61228 40039 ft 404 kts 317°
2026-04-27 18:53 -20.46867 -70.66921 40039 ft 404 kts 317°
2026-04-27 18:53 -20.42472 -70.70731 40036 ft 405 kts 317°
2026-04-27 18:54 -20.38106 -70.74513 40037 ft 405 kts 317°
2026-04-27 18:54 -20.33847 -70.78195 40036 ft 405 kts 317°
2026-04-27 18:55 -20.29318 -70.82103 40036 ft 405 kts 317°
2026-04-27 18:55 -20.24909 -70.85906 40037 ft 405 kts 317°
2026-04-27 18:56 -20.20552 -70.89663 40034 ft 405 kts 317°
2026-04-27 18:56 -20.16173 -70.93436 40035 ft 405 kts 317°
2026-04-27 18:57 -20.11760 -70.97236 40035 ft 405 kts 317°
2026-04-27 18:57 -20.07379 -71.01003 40015 ft 393 kts 317°
2026-04-27 18:58 -20.03188 -71.04601 40021 ft 376 kts 317°
2026-04-27 18:58 -19.99191 -71.08033 40022 ft 363 kts 317°
2026-04-27 18:59 -19.95191 -71.11468 40020 ft 352 kts 317°
2026-04-27 18:59 -19.91905 -71.14290 40047 ft 353 kts 317°
2026-04-27 18:59 -19.89778 -71.16120 40046 ft 365 kts 317°
2026-04-27 19:00 -19.87781 -71.17837 40052 ft 374 kts 317°
2026-04-27 19:00 -19.83630 -71.21401 40047 ft 392 kts 318°
2026-04-27 19:01 -19.79293 -71.25115 40041 ft 407 kts 318°
2026-04-27 19:01 -19.74845 -71.28918 40023 ft 411 kts 318°
2026-04-27 19:02 -19.70240 -71.32851 40032 ft 411 kts 318°
2026-04-27 19:02 -19.65724 -71.36707 40025 ft 410 kts 318°
2026-04-27 19:03 -19.61219 -71.40553 40026 ft 410 kts 318°
2026-04-27 19:03 -19.56744 -71.44370 40026 ft 409 kts 318°
2026-04-27 19:04 -19.52310 -71.48150 40027 ft 408 kts 318°
2026-04-27 19:04 -19.48520 -71.51380 40028 ft 407 kts 318°
2026-04-27 19:05 -19.44267 -71.55000 40028 ft 406 kts 318°
2026-04-27 19:05 -19.39742 -71.58850 40028 ft 405 kts 318°
2026-04-27 19:06 -19.35133 -71.62769 40019 ft 405 kts 319°
2026-04-27 19:06 -19.30717 -71.66521 40028 ft 404 kts 319°
2026-04-27 19:07 -19.26257 -71.70306 40029 ft 404 kts 319°
2026-04-27 19:07 -19.21696 -71.74176 40029 ft 405 kts 319°
2026-04-27 19:08 -19.17301 -71.77901 40029 ft 405 kts 319°
2026-04-27 19:08 -19.12821 -71.81697 40026 ft 405 kts 319°
2026-04-27 19:09 -19.09124 -71.84826 40029 ft 405 kts 319°
2026-04-27 19:09 -19.04335 -71.88878 40022 ft 406 kts 319°
2026-04-27 19:10 -18.99804 -71.92708 40021 ft 406 kts 319°
2026-04-27 19:10 -18.95394 -71.96434 40021 ft 406 kts 319°
2026-04-27 19:11 -18.90829 -72.00287 40021 ft 406 kts 319°
2026-04-27 19:11 -18.87069 -72.03460 40017 ft 407 kts 319°
2026-04-27 19:12 -18.82487 -72.07322 40026 ft 407 kts 319°
2026-04-27 19:12 -18.77947 -72.11147 40026 ft 407 kts 319°
2026-04-27 19:13 -18.73442 -72.14939 40023 ft 407 kts 319°
2026-04-27 19:13 -18.68956 -72.18713 40017 ft 407 kts 319°
2026-04-27 19:14 -18.64488 -72.22470 40016 ft 407 kts 319°
2026-04-27 19:14 -18.60026 -72.26218 40020 ft 407 kts 319°
2026-04-27 19:15 -18.55551 -72.29975 40019 ft 408 kts 319°
2026-04-27 19:15 -18.51088 -72.33720 40024 ft 408 kts 320°
2026-04-27 19:16 -18.47331 -72.36871 40014 ft 408 kts 320°
2026-04-27 19:16 -18.42914 -72.40572 40020 ft 408 kts 320°
2026-04-27 19:17 -18.38441 -72.44319 40025 ft 408 kts 320°
2026-04-27 19:17 -18.33947 -72.48080 40009 ft 408 kts 320°
2026-04-27 19:18 -18.29500 -72.51802 40019 ft 408 kts 320°
2026-04-27 19:18 -18.25058 -72.55517 40019 ft 408 kts 320°
2026-04-27 19:19 -18.20525 -72.59308 40018 ft 408 kts 320°
2026-04-27 19:19 -18.15950 -72.63131 40022 ft 408 kts 320°
2026-04-27 19:20 -18.11436 -72.66901 40016 ft 408 kts 320°
2026-04-27 19:20 -18.06790 -72.70776 40017 ft 408 kts 320°
2026-04-27 19:21 -18.02999 -72.73937 40020 ft 408 kts 320°
2026-04-27 19:21 -17.98545 -72.77650 40018 ft 408 kts 320°
2026-04-27 19:22 -17.94062 -72.81383 40018 ft 408 kts 320°
2026-04-27 19:22 -17.89574 -72.85119 40020 ft 408 kts 320°
2026-04-27 19:23 -17.85085 -72.88853 40019 ft 409 kts 320°
2026-04-27 19:23 -17.80389 -72.92756 40018 ft 409 kts 320°
2026-04-27 19:24 -17.75802 -72.96567 40017 ft 409 kts 320°
2026-04-27 19:24 -17.71305 -73.00300 40018 ft 409 kts 320°
2026-04-27 19:25 -17.66846 -73.03999 40020 ft 409 kts 321°
2026-04-27 19:25 -17.62321 -73.07750 40020 ft 409 kts 321°
2026-04-27 19:26 -17.58471 -73.10940 40019 ft 409 kts 321°
2026-04-27 19:26 -17.53867 -73.14753 40018 ft 409 kts 321°
2026-04-27 19:27 -17.49366 -73.18477 40019 ft 409 kts 321°
2026-04-27 19:27 -17.44893 -73.22176 40017 ft 409 kts 321°
2026-04-27 19:28 -17.40387 -73.25900 40017 ft 410 kts 321°
2026-04-27 19:28 -17.35910 -73.29597 40017 ft 410 kts 321°
2026-04-27 19:29 -17.31432 -73.33293 40013 ft 410 kts 321°
2026-04-27 19:29 -17.26953 -73.36987 40016 ft 410 kts 321°
2026-04-27 19:30 -17.22535 -73.40629 40017 ft 410 kts 321°
2026-04-27 19:30 -17.17955 -73.44402 40016 ft 410 kts 321°
2026-04-27 19:31 -17.13408 -73.48146 40017 ft 410 kts 321°
2026-04-27 19:31 -17.08922 -73.51836 40013 ft 410 kts 321°
2026-04-27 19:32 -17.04186 -73.55730 40014 ft 411 kts 321°
2026-04-27 19:32 -17.00288 -73.58933 40013 ft 411 kts 321°
2026-04-27 19:33 -16.95570 -73.62808 40013 ft 411 kts 321°
2026-04-27 19:33 -16.91071 -73.66499 40011 ft 411 kts 321°
2026-04-27 19:34 -16.86393 -73.70337 40009 ft 411 kts 322°
2026-04-27 19:34 -16.82458 -73.73562 40004 ft 411 kts 322°
2026-04-27 19:35 -16.77951 -73.77254 40007 ft 412 kts 322°
2026-04-27 19:35 -16.73424 -73.80961 40008 ft 412 kts 322°
2026-04-27 19:36 -16.68900 -73.84662 40007 ft 412 kts 322°
2026-04-27 19:36 -16.64410 -73.88334 40009 ft 412 kts 322°
2026-04-27 19:37 -16.59869 -73.92047 40004 ft 412 kts 322°
2026-04-27 19:37 -16.55347 -73.95739 40009 ft 412 kts 322°
2026-04-27 19:38 -16.50820 -73.99429 40008 ft 412 kts 322°
2026-04-27 19:38 -16.46297 -74.03113 40006 ft 412 kts 322°
2026-04-27 19:39 -16.41802 -74.06774 40003 ft 413 kts 322°
2026-04-27 19:39 -16.37222 -74.10502 40007 ft 413 kts 322°
2026-04-27 19:40 -16.32695 -74.14186 40005 ft 413 kts 322°
2026-04-27 19:40 -16.28173 -74.17863 40008 ft 413 kts 322°
2026-04-27 19:41 -16.23649 -74.21539 40005 ft 413 kts 322°
2026-04-27 19:41 -16.19113 -74.25223 40006 ft 413 kts 322°
2026-04-27 19:42 -16.14559 -74.28919 40005 ft 413 kts 322°
2026-04-27 19:42 -16.10029 -74.32594 40001 ft 413 kts 322°
2026-04-27 19:43 -16.05498 -74.36267 40006 ft 413 kts 322°
2026-04-27 19:43 -16.01046 -74.39874 40006 ft 413 kts 322°
2026-04-27 19:44 -15.96277 -74.43735 40003 ft 413 kts 322°
2026-04-27 19:44 -15.91623 -74.47501 40007 ft 413 kts 322°
2026-04-27 19:45 -15.87078 -74.51177 40002 ft 413 kts 322°
2026-04-27 19:45 -15.82535 -74.54849 40004 ft 413 kts 322°
2026-04-27 19:46 -15.78635 -74.57999 40002 ft 413 kts 322°
2026-04-27 19:46 -15.74032 -74.61716 40003 ft 413 kts 322°
2026-04-27 19:47 -15.69454 -74.65410 40003 ft 413 kts 322°
2026-04-27 19:47 -15.64911 -74.69074 39999 ft 413 kts 322°
2026-04-27 19:48 -15.60397 -74.72712 40002 ft 413 kts 322°
2026-04-27 19:48 -15.55825 -74.76394 39999 ft 413 kts 322°
2026-04-27 19:49 -15.51157 -74.80153 40006 ft 413 kts 322°
2026-04-27 19:49 -15.46523 -74.83880 39999 ft 413 kts 322°
2026-04-27 19:50 -15.41977 -74.87536 40003 ft 413 kts 322°
2026-04-27 19:50 -15.37193 -74.91381 39999 ft 413 kts 322°
2026-04-27 19:51 -15.33384 -74.94440 40000 ft 413 kts 322°
2026-04-27 19:51 -15.28846 -74.98083 39992 ft 413 kts 322°
2026-04-27 19:52 -15.24300 -75.01731 39993 ft 413 kts 322°
2026-04-27 19:52 -15.19771 -75.05362 39988 ft 413 kts 322°
2026-04-27 19:53 -15.12871 -75.10893 39986 ft 413 kts 322°
2026-04-27 19:53 -15.08290 -75.14562 39977 ft 413 kts 322°
2026-04-27 19:54 -15.03766 -75.18180 39974 ft 413 kts 322°
2026-04-27 19:54 -14.98933 -75.22046 39975 ft 412 kts 323°
2026-04-27 19:55 -14.94960 -75.25222 39974 ft 413 kts 323°
2026-04-27 19:55 -14.90133 -75.29079 39967 ft 413 kts 323°
2026-04-27 19:56 -14.85458 -75.32812 39968 ft 413 kts 323°
2026-04-27 19:56 -14.80911 -75.36441 39967 ft 413 kts 323°
2026-04-27 19:57 -14.76180 -75.40215 39968 ft 413 kts 323°
2026-04-27 19:57 -14.72184 -75.43401 39968 ft 413 kts 323°
2026-04-27 19:58 -14.67634 -75.47026 39979 ft 413 kts 323°
2026-04-27 19:58 -14.63049 -75.50678 39970 ft 413 kts 323°
2026-04-27 19:59 -14.58464 -75.54327 39976 ft 413 kts 323°
2026-04-27 19:59 -14.53903 -75.57956 39969 ft 413 kts 323°
2026-04-27 20:00 -14.49282 -75.61630 39969 ft 413 kts 323°
2026-04-27 20:00 -14.44709 -75.65264 39971 ft 413 kts 323°
2026-04-27 20:01 -14.40041 -75.68971 39973 ft 413 kts 322°
2026-04-27 20:01 -14.35451 -75.72616 39966 ft 414 kts 322°
2026-04-27 20:02 -14.30739 -75.76360 39972 ft 414 kts 323°
2026-04-27 20:02 -14.26167 -75.79982 39971 ft 414 kts 323°
2026-04-27 20:03 -14.21566 -75.83626 39974 ft 414 kts 323°
2026-04-27 20:03 -14.16987 -75.87245 39970 ft 415 kts 323°
2026-04-27 20:04 -14.13069 -75.90340 39970 ft 415 kts 323°
2026-04-27 20:04 -14.08450 -75.93990 39971 ft 416 kts 323°
2026-04-27 20:05 -14.03695 -75.97746 39969 ft 416 kts 323°
2026-04-27 20:05 -13.98948 -76.01493 39972 ft 417 kts 323°
2026-04-27 20:06 -13.94281 -76.05176 39972 ft 417 kts 323°
2026-04-27 20:06 -13.89639 -76.08837 39971 ft 417 kts 323°
2026-04-27 20:07 -13.84837 -76.12623 39970 ft 417 kts 323°
2026-04-27 20:07 -13.80306 -76.16194 39967 ft 418 kts 323°
2026-04-27 20:08 -13.76321 -76.19333 39970 ft 418 kts 323°
2026-04-27 20:08 -13.71233 -76.23125 39966 ft 418 kts 327°
2026-04-27 20:09 -13.66078 -76.26381 39968 ft 418 kts 329°
2026-04-27 20:09 -13.61803 -76.29033 39967 ft 418 kts 328°
2026-04-27 20:10 -13.56603 -76.32309 39969 ft 418 kts 328°
2026-04-27 20:10 -13.51703 -76.35429 39969 ft 418 kts 328°
2026-04-27 20:11 -13.46710 -76.38617 39972 ft 418 kts 328°
2026-04-27 20:11 -13.41648 -76.41848 39972 ft 418 kts 328°
2026-04-27 20:12 -13.37088 -76.44757 39972 ft 418 kts 328°
2026-04-27 20:12 -13.31661 -76.48217 39972 ft 419 kts 328°
2026-04-27 20:13 -13.26621 -76.51429 39475 ft 424 kts 328°
2026-04-27 20:13 -13.24117 -76.53024 38856 ft 423 kts 328°
2026-04-27 20:13 -13.21579 -76.54640 38105 ft 423 kts 328°
2026-04-27 20:14 -13.19077 -76.56233 37317 ft 423 kts 328°
2026-04-27 20:14 -13.17422 -76.57287 36846 ft 422 kts 328°
2026-04-27 20:14 -13.14033 -76.59443 35896 ft 421 kts 328°
2026-04-27 20:14 -13.12244 -76.60581 35300 ft 423 kts 328°
2026-04-27 20:15 -13.09720 -76.62187 34421 ft 427 kts 328°
2026-04-27 20:15 -13.07011 -76.63910 33401 ft 433 kts 328°
2026-04-27 20:15 -13.04391 -76.65575 32689 ft 429 kts 327°
2026-04-27 20:15 -13.01934 -76.67137 32019 ft 426 kts 327°
2026-04-27 20:16 -12.99251 -76.68841 31319 ft 423 kts 327°
2026-04-27 20:16 -12.96760 -76.70423 30657 ft 420 kts 327°
2026-04-27 20:16 -12.94284 -76.71996 29988 ft 418 kts 327°
2026-04-27 20:16 -12.91940 -76.73484 29276 ft 416 kts 327°
2026-04-27 20:17 -12.89257 -76.75188 28495 ft 411 kts 327°
2026-04-27 20:17 -12.86838 -76.76723 27810 ft 407 kts 327°
2026-04-27 20:17 -12.84442 -76.78244 27138 ft 403 kts 327°
2026-04-27 20:17 -12.82865 -76.79245 26701 ft 401 kts 327°
2026-04-27 20:18 -12.79701 -76.81253 25811 ft 397 kts 328°
2026-04-27 20:18 -12.77361 -76.82737 25136 ft 396 kts 328°
2026-04-27 20:18 -12.75023 -76.84219 24462 ft 394 kts 328°
2026-04-27 20:18 -12.72692 -76.85697 23794 ft 393 kts 329°
2026-04-27 20:19 -12.70370 -76.87168 23034 ft 392 kts 329°
2026-04-27 20:19 -12.68052 -76.88637 22305 ft 389 kts 329°
2026-04-27 20:19 -12.65735 -76.90105 21624 ft 385 kts 329°
2026-04-27 20:19 -12.63510 -76.91515 20972 ft 381 kts 329°
2026-04-27 20:20 -12.61213 -76.92969 20288 ft 377 kts 329°
2026-04-27 20:20 -12.59049 -76.94339 20097 ft 362 kts 329°
2026-04-27 20:20 -12.56868 -76.95679 19782 ft 349 kts 333°
2026-04-27 20:20 -12.55263 -76.96534 19469 ft 345 kts 335°
2026-04-27 20:21 -12.53024 -76.97638 19048 ft 340 kts 336°
2026-04-27 20:21 -12.50982 -76.98621 18643 ft 340 kts 336°
2026-04-27 20:21 -12.48828 -76.99663 18213 ft 339 kts 336°
2026-04-27 20:21 -12.46705 -77.00699 17752 ft 336 kts 336°
2026-04-27 20:22 -12.44609 -77.01728 17316 ft 333 kts 336°
2026-04-27 20:22 -12.42531 -77.02749 16916 ft 330 kts 335°
2026-04-27 20:22 -12.40423 -77.03793 16502 ft 327 kts 335°
2026-04-27 20:22 -12.38300 -77.04846 16092 ft 325 kts 335°
2026-04-27 20:23 -12.36362 -77.05808 15708 ft 323 kts 335°
2026-04-27 20:23 -12.34253 -77.06852 15296 ft 322 kts 335°
2026-04-27 20:23 -12.32206 -77.07867 14893 ft 321 kts 335°
2026-04-27 20:23 -12.30198 -77.08866 14496 ft 320 kts 335°
2026-04-27 20:24 -12.28815 -77.09551 14216 ft 321 kts 334°
2026-04-27 20:24 -12.26763 -77.10568 13807 ft 320 kts 334°
2026-04-27 20:24 -12.25373 -77.11257 13506 ft 320 kts 334°
2026-04-27 20:24 -12.22634 -77.12616 12941 ft 317 kts 334°
2026-04-27 20:25 -12.20594 -77.13629 12524 ft 314 kts 334°
2026-04-27 20:25 -12.18633 -77.14602 12139 ft 312 kts 334°
2026-04-27 20:25 -12.16685 -77.15569 11757 ft 309 kts 334°
2026-04-27 20:25 -12.14763 -77.16523 11381 ft 306 kts 334°
2026-04-27 20:26 -12.12849 -77.17472 11007 ft 304 kts 334°
2026-04-27 20:26 -12.10938 -77.18426 10634 ft 299 kts 333°
2026-04-27 20:26 -12.09082 -77.19350 10265 ft 293 kts 334°
2026-04-27 20:26 -12.07263 -77.20252 9899 ft 288 kts 334°
2026-04-27 20:27 -12.05477 -77.21137 9529 ft 283 kts 334°
2026-04-27 20:27 -12.03686 -77.22026 9152 ft 278 kts 333°
2026-04-27 20:27 -12.01974 -77.22875 8835 ft 272 kts 333°
2026-04-27 20:27 -12.00314 -77.23719 8515 ft 268 kts 332°
2026-04-27 20:28 -11.99180 -77.24312 8291 ft 266 kts 332°
2026-04-27 20:28 -11.96793 -77.25562 7835 ft 263 kts 332°
2026-04-27 20:28 -11.95178 -77.26406 7521 ft 262 kts 332°
2026-04-27 20:28 -11.94653 -77.26680 7421 ft 261 kts 332°
2026-04-27 20:29 -11.92563 -77.27770 7007 ft 259 kts 333°
2026-04-27 20:29 -11.90471 -77.28812 6583 ft 259 kts 334°
2026-04-27 20:29 -11.89418 -77.29327 6383 ft 258 kts 334°
2026-04-27 20:29 -11.87646 -77.30195 6019 ft 256 kts 334°
2026-04-27 20:30 -11.85785 -77.30688 5643 ft 255 kts
2026-04-27 20:30 -11.84305 -77.30339 5372 ft 254 kts 26°
2026-04-27 20:30 -11.82910 -77.29143 5044 ft 253 kts 53°
2026-04-27 20:30 -11.82001 -77.27499 4714 ft 250 kts 63°
2026-04-27 20:31 -11.81453 -77.26343 4465 ft 249 kts 64°
2026-04-27 20:31 -11.81053 -77.24564 4115 ft 246 kts 92°
2026-04-27 20:31 -11.81680 -77.22677 3807 ft 241 kts 125°
2026-04-27 20:31 -11.82468 -77.21814 3628 ft 237 kts 140°
2026-04-27 20:32 -11.84108 -77.20597 3314 ft 232 kts 145°
2026-04-27 20:32 -11.85166 -77.19868 3103 ft 229 kts 148°
2026-04-27 20:32 -11.86932 -77.18958 2783 ft 224 kts 155°
2026-04-27 20:32 -11.87709 -77.18594 2665 ft 220 kts 155°
2026-04-27 20:33 -11.89341 -77.17802 2468 ft 202 kts 154°
2026-04-27 20:33 -11.90526 -77.17214 2236 ft 194 kts 154°
2026-04-27 20:33 -11.91758 -77.16602 1981 ft 188 kts 155°
2026-04-27 20:33 -11.92699 -77.16135 1786 ft 184 kts 155°
2026-04-27 20:34 -11.93830 -77.15574 1553 ft 178 kts 155°
2026-04-27 20:34 -11.95055 -77.14966 1296 ft 172 kts 155°
2026-04-27 20:34 -11.96266 -77.14364 1035 ft 165 kts 156°
2026-04-27 20:34 -11.96962 -77.14019 894 ft 157 kts 156°
2026-04-27 20:35 -11.97999 -77.13507 692 ft 144 kts 156°
2026-04-27 20:35 -11.98985 -77.13016 462 ft 129 kts 157°
2026-04-27 20:35 -11.99816 -77.12604 298 ft 120 kts 157°
2026-04-27 20:35 -12.00584 -77.12219 135 ft 121 kts 156°
2026-04-27 20:36 -12.01195 -77.11924 68 ft 118 kts 156°
2026-04-27 20:36 -12.01805 -77.11623 66 ft 89 kts 154°
2026-04-27 20:36 -12.02258 -77.11397 83 ft 44 kts 155°
2026-04-27 20:36 -12.02459 -77.11298 87 ft 21 kts 147°
2026-04-27 20:37 -12.02488 -77.11232 90 ft 17 kts 77°
2026-04-27 20:37 -12.02441 -77.11131 92 ft 10 kts 64°
2026-04-27 20:37 -12.02435 -77.11101 91 ft 2 kts 111°
2026-04-27 20:37 -12.02450 -77.11093 92 ft 3 kts 156°
2026-04-27 20:38 -12.02485 -77.11077 90 ft 7 kts 154°
2026-04-27 20:38 -12.02533 -77.11053 91 ft 9 kts 154°
2026-04-27 20:38 -12.02590 -77.11025 92 ft 11 kts 154°
2026-04-27 20:38 -12.02653 -77.10994 92 ft 12 kts 154°
2026-04-27 20:39 -12.02741 -77.10949 93 ft 8 kts 154°
2026-04-27 20:39 -12.02781 -77.10929 93 ft 8 kts 153°
2026-04-27 20:39 -12.02843 -77.10899 94 ft 7 kts 155°
2026-04-27 20:39 -12.02875 -77.10883 97 ft 7 kts 155°
2026-04-27 20:40 -12.02929 -77.10855 95 ft 7 kts 155°
2026-04-27 20:40 -12.02939 -77.10822 95 ft 4 kts 65°
2026-04-27 20:40 -12.02910 -77.10809 94 ft 6 kts
2026-04-27 20:40 -12.02870 -77.10803 93 ft 9 kts
2026-04-27 20:41 -12.02805 -77.10822 92 ft 9 kts 351°
2026-04-27 20:41 -12.02768 -77.10797 91 ft 6 kts 73°
2026-04-27 20:41 -12.02750 -77.10751 91 ft 8 kts 64°
2026-04-27 20:41 -12.02727 -77.10698 91 ft 7 kts 82°
2026-04-27 20:42 -12.02763 -77.10659 91 ft 8 kts 154°
2026-04-27 20:42 -12.02805 -77.10633 92 ft 6 kts 132°
2026-04-27 20:42 -12.02812 -77.10613 93 ft 1 kts 74°
2026-04-27 20:42 -12.02807 -77.10605 92 ft 2 kts 63°
2026-04-27 20:43 -12.02802 -77.10594 92 ft 2 kts 63°
2026-04-27 20:43 -12.02800 -77.10591 92 ft 0 kts 64°